Temp
13 13 13 13 13 13 13 13 13 13 13 13 13 12 12 12 12 12 12 12 12 11 11 11 11 11 11 11 11 11 11 11 11 11 12 12 11 11 11 11 11 11
13 13 13 13 13 13 13 13 13 13 13 13 13 13 12 12 12 12 12 12 12 12 12 12 11 11 11 11 11 11 11 11 11 11 12 12 11 11 12 11 11 11
14 14 14 13 13 13 13 13 13 13 13 13 13 13 12 12 12 12 12 12 12 12 12 12 12 11 11 11 11 11 11 11 11 12 12 11 11 11 11 11 11 11
14 14 14 14 14 13 13 13 13 13 13 13 13 13 13 13 12 12 12 12 12 12 12 12 12 12 11 11 11 11 11 11 12 12 12 12 11 12 11 11 11 11
14 14 14 14 14 14 13 13 13 13 13 13 13 13 13 13 13 13 12 12 12 12 12 12 12 12 12 11 11 11 11 11 11 12 12 12 12 12 12 12 12 12
14 14 14 14 14 14 14 14 13 13 13 13 13 13 13 13 13 13 13 13 12 12 12 12 12 12 12 12 11 11 11 11 11 12 12 12 12 12 12 12 12 12
15 14 14 14 14 14 14 14 14 13 13 13 13 13 13 13 13 13 13 13 13 13 13 12 12 12 12 12 12 12 11 11 11 12 12 12 12 12 12 12 12 12
15 15 14 14 14 14 14 14 14 14 14 13 13 13 13 13 13 13 13 13 13 13 13 13 13 13 12 12 12 12 12 12 12 12 12 12 12 12 12 12 12 12
15 15 15 14 14 14 14 14 14 14 14 14 14 13 13 13 13 13 13 13 13 13 13 13 13 13 13 13 13 13 12 12 12 12 12 12 12 12 12 12 12 12
16 15 15 15 15 15 14 14 14 14 14 14 14 14 14 14 13 13 13 13 13 13 13 13 13 13 13 13 13 13 13 13 13 12 13 13 12 12 12 12 12 12
16 16 16 15 15 15 15 14 14 14 14 14 14 14 14 14 14 14 14 14 14 14 14 14 13 13 13 13 13 13 13 13 13 13 13 13 13 13 12 12 12 12
16 16 16 16 15 15 15 15 14 14 14 14 14 14 14 14 14 14 14 14 14 14 14 14 14 14 13 13 13 13 13 13 13 13 13 13 13 13 13 13 13 12
17 17 16 16 16 15 15 15 15 15 14 14 14 14 14 14 14 14 14 14 14 14 14 14 14 14 14 14 13 13 13 13 13 13 13 13 13 13 13 13 13 13
17 17 17 17 16 16 16 15 15 15 15 15 15 14 14 14 14 14 14 14 14 14 14 14 14 14 14 14 14 13 13 13 13 13 13 13 13 13 13 13 14 13
17 17 17 16 16 16 16 16 15 15 15 15 15 15 14 14 14 14 14 14 14 14 14 14 14 14 14 14 14 14 13 13 13 13 13 13 13 13 13 14 14 14
16 16 16 16 16 16 16 16 15 15 15 15 15 15 14 14 14 14 14 14 15 14 15 15 15 15 15 15 14 14 14 13 13 13 13 13 13 13 13 14 14 14
16 16 16 16 16 16 16 15 15 15 15 15 15 14 14 14 14 14 14 15 15 15 15 15 15 15 15 15 15 15 14 14 13 13 13 13 13 14 14 14 14 14
17 16 16 16 16 16 16 15 15 15 15 15 15 15 15 15 15 15 14 15 15 16 16 16 16 16 16 16 15 15 15 14 14 14 14 14 14 14 14 14 14 14
18 17 16 16 16 16 16 15 15 15 15 15 15 15 15 15 15 15 15 15 15 16 16 16 16 16 16 16 16 15 15 15 14 14 15 15 15 15 15 14 14 14
19 18 17 16 16 16 16 16 16 15 15 15 15 15 15 15 16 16 16 15 16 16 16 17 17 16 16 16 16 16 15 15 15 15 15 15 15 15 15 15 15 14
19 19 18 17 16 16 16 16 16 16 16 16 15 16 16 16 16 16 16 16 16 16 16 16 17 17 17 17 16 16 16 15 15 15 15 15 15 15 15 15 15 15
19 19 18 18 17 17 16 16 16 16 16 16 16 16 16 16 16 16 16 16 16 16 16 16 17 17 17 17 17 16 16 15 15 15 15 15 15 15 15 15 15 15
19 19 18 18 18 17 17 16 16 16 16 16 16 16 16 16 16 16 16 16 16 16 16 17 17 17 17 17 17 17 16 16 15 15 15 15 15 15 15 15 15 15
19 19 18 18 18 17 17 17 16 16 16 16 16 16 16 16 16 16 16 16 17 17 17 17 16 16 16 17 17 17 16 16 16 15 15 15 15 15 15 15 15 15
19 19 18 18 18 18 17 17 17 17 16 16 16 16 16 16 16 16 16 16 17 17 17 17 17 16 16 16 17 16 16 16 16 16 16 16 15 15 15 15 15 15
19 19 18 18 18 18 17 17 17 17 16 16 16 16 16 16 16 16 17 17 17 17 17 17 17 17 16 16 16 16 16 16 16 16 16 16 15 15 15 15 15 15
Height
3184 3186 3187 3189 3191 3193 3194 3196 3198 3199 3201 3202 3203 3204 3205 3206 3207 3208 3209 3211 3212 3213 3215 3216 3217 3218 3219 3220 3220 3221 3222 3223 3224 3225 3226 3227 3227 3228 3228 3229 3229 3229
3182 3184 3185 3187 3189 3191 3192 3194 3196 3198 3199 3201 3202 3203 3204 3205 3206 3207 3208 3209 3211 3212 3213 3214 3215 3216 3217 3218 3219 3220 3221 3222 3223 3224 3225 3226 3226 3227 3228 3228 3229 3229
3180 3182 3183 3185 3187 3189 3191 3193 3194 3196 3198 3199 3200 3202 3203 3204 3205 3206 3207 3208 3209 3210 3211 3213 3214 3215 3216 3217 3218 3219 3219 3220 3221 3223 3224 3225 3226 3226 3227 3227 3228 3228
3178 3179 3181 3183 3185 3187 3189 3191 3192 3194 3196 3197 3199 3200 3201 3203 3203 3204 3205 3206 3208 3209 3210 3211 3212 3213 3214 3215 3216 3217 3218 3219 3220 3221 3222 3224 3225 3225 3226 3226 3227 3227
3176 3177 3179 3181 3183 3185 3187 3188 3190 3192 3194 3195 3197 3198 3200 3201 3202 3203 3204 3205 3206 3208 3209 3210 3211 3212 3213 3213 3214 3215 3216 3217 3218 3219 3220 3222 3224 3224 3224 3225 3226 3226
3173 3175 3177 3179 3181 3183 3184 3186 3188 3189 3191 3193 3195 3197 3198 3199 3201 3202 3203 3204 3205 3206 3207 3209 3209 3210 3211 3212 3213 3213 3214 3215 3216 3217 3218 3220 3221 3223 3223 3223 3224 3225
3171 3173 3175 3177 3179 3180 3182 3184 3186 3187 3189 3191 3193 3195 3196 3198 3199 3201 3202 3203 3204 3205 3206 3207 3208 3209 3210 3210 3211 3212 3212 3213 3214 3215 3216 3217 3219 3220 3221 3222 3222 3223
3168 3171 3173 3175 3176 3178 3180 3182 3184 3186 3188 3189 3191 3193 3195 3196 3198 3199 3200 3201 3203 3204 3204 3205 3206 3207 3208 3209 3210 3210 3211 3211 3212 3212 3214 3215 3216 3217 3219 3220 3220 3221
3166 3168 3170 3172 3174 3175 3177 3179 3182 3184 3186 3187 3189 3191 3193 3194 3196 3197 3198 3199 3200 3202 3203 3203 3204 3206 3206 3207 3208 3209 3209 3209 3210 3210 3211 3212 3213 3214 3216 3217 3218 3219
3163 3165 3167 3169 3171 3173 3175 3177 3179 3182 3183 3185 3187 3189 3190 3192 3194 3195 3196 3197 3198 3199 3201 3202 3202 3203 3204 3205 3206 3207 3208 3208 3208 3208 3209 3210 3211 3212 3213 3214 3215 3216
3161 3163 3164 3166 3168 3170 3173 3175 3177 3179 3181 3183 3185 3186 3188 3190 3192 3193 3194 3195 3196 3197 3198 3199 3200 3201 3202 3203 3204 3205 3206 3206 3206 3206 3206 3207 3208 3209 3210 3211 3212 3213
3158 3160 3162 3164 3166 3169 3171 3173 3175 3177 3179 3181 3183 3184 3186 3187 3189 3190 3191 3193 3194 3195 3196 3197 3198 3198 3199 3200 3201 3202 3203 3204 3204 3204 3204 3205 3205 3206 3207 3208 3209 3210
3156 3158 3160 3162 3164 3167 3169 3171 3173 3175 3176 3178 3180 3182 3184 3185 3186 3188 3189 3191 3192 3193 3194 3194 3195 3196 3196 3197 3198 3199 3200 3201 3202 3202 3202 3202 3203 3203 3204 3205 3206 3207
3154 3156 3158 3161 3163 3165 3167 3169 3171 3172 3174 3176 3178 3180 3182 3183 3184 3185 3187 3188 3189 3190 3192 3192 3192 3193 3193 3194 3195 3196 3197 3197 3199 3200 3200 3200 3201 3201 3201 3202 3203 3204
3153 3155 3157 3159 3161 3163 3164 3166 3168 3170 3172 3173 3175 3177 3179 3181 3182 3183 3184 3185 3187 3188 3189 3189 3189 3189 3190 3191 3192 3194 3194 3194 3195 3196 3197 3198 3198 3198 3198 3199 3199 3200
3151 3153 3155 3157 3158 3160 3162 3164 3166 3168 3170 3171 3172 3174 3176 3179 3180 3181 3181 3182 3183 3185 3186 3186 3186 3186 3187 3188 3189 3191 3192 3192 3192 3193 3194 3194 3195 3195 3195 3195 3196 3196
3148 3151 3153 3155 3157 3158 3160 3162 3163 3165 3167 3169 3170 3171 3173 3175 3177 3179 3179 3179 3180 3182 3183 3183 3183 3184 3185 3186 3187 3188 3189 3189 3189 3189 3190 3190 3191 3191 3192 3192 3193 3193
3145 3147 3150 3152 3154 3156 3158 3160 3161 3163 3164 3166 3167 3168 3170 3172 3174 3176 3177 3177 3177 3179 3180 3180 3181 3182 3182 3183 3184 3185 3186 3186 3186 3186 3186 3186 3187 3188 3188 3189 3189 3189
3141 3144 3147 3149 3152 3154 3156 3157 3159 3160 3161 3163 3164 3166 3168 3169 3170 3172 3174 3175 3175 3175 3176 3178 3179 3179 3180 3180 3181 3182 3183 3183 3184 3183 3183 3183 3183 3184 3185 3185 3186 3186
3137 3139 3143 3146 3148 3151 3153 3154 3156 3157 3159 3160 3162 3164 3165 3166 3167 3169 3170 3172 3172 3173 3173 3175 3175 3176 3177 3177 3178 3179 3180 3180 3181 3180 3180 3180 3180 3180 3181 3181 3182 3182
3134 3136 3138 3142 3145 3147 3149 3151 3153 3154 3156 3158 3159 3161 3162 3163 3165 3166 3167 3168 3170 3170 3171 3171 3172 3173 3174 3174 3175 3175 3176 3177 3177 3177 3177 3176 3176 3176 3177 3177 3178 3178
3131 3133 3135 3138 3140 3143 3145 3147 3150 3151 3153 3155 3157 3158 3159 3161 3162 3163 3164 3165 3166 3167 3168 3168 3169 3170 3170 3171 3171 3172 3172 3173 3173 3173 3173 3173 3172 3173 3173 3173 3174 3174
3129 3130 3132 3134 3136 3139 3141 3144 3146 3148 3150 3152 3153 3155 3156 3157 3159 3160 3161 3162 3163 3164 3164 3165 3166 3167 3167 3167 3167 3168 3168 3169 3169 3169 3169 3169 3169 3169 3169 3169 3169 3170
3126 3128 3130 3131 3133 3135 3137 3140 3143 3145 3147 3148 3150 3152 3153 3154 3156 3157 3158 3158 3159 3160 3160 3161 3162 3163 3164 3164 3164 3164 3164 3164 3165 3165 3165 3165 3165 3165 3165 3165 3165 3166
3123 3125 3127 3129 3131 3132 3134 3137 3139 3141 3143 3145 3147 3148 3150 3151 3152 3153 3154 3154 3155 3156 3157 3157 3158 3159 3160 3160 3160 3160 3160 3160 3160 3161 3161 3161 3161 3161 3161 3161 3162 3162
3121 3122 3124 3126 3128 3130 3131 3134 3136 3138 3140 3142 3143 3145 3146 3148 3148 3149 3149 3150 3151 3152 3153 3153 3154 3155 3156 3156 3157 3157 3156 3156 3156 3156 3156 3157 3157 3158 3157 3157 3157 3158
Wind_Speed
25 26 26 25 25 23 21 20 19 17 15 14 12 10 8 9 12 15 15 15 15 16 17 17 16 16 15 15 15 16 16 15 13 10 8 8 9 8 7 5 3 2
25 25 25 25 25 24 23 22 21 19 17 15 13 11 10 10 11 13 14 14 15 16 17 17 17 17 16 16 16 17 17 17 16 13 10 10 10 10 9 7 5 4
24 24 24 24 25 24 24 23 22 20 19 17 15 14 13 12 12 11 12 12 13 15 17 17 17 17 18 17 16 17 18 18 18 16 13 12 12 11 11 9 8 7
24 23 22 22 23 24 23 24 24 22 21 19 17 16 14 14 13 12 12 12 12 13 16 17 18 18 19 19 18 18 18 18 19 19 17 15 14 13 13 12 10 8
24 23 22 22 23 23 24 25 25 24 22 21 19 17 16 16 15 14 13 13 12 12 13 15 17 18 19 20 20 19 19 19 20 21 21 18 16 16 15 14 13 11
26 25 24 23 23 24 25 25 25 25 23 22 20 19 18 17 16 15 15 14 13 13 13 14 15 17 18 20 22 21 21 20 21 22 22 22 20 19 18 18 16 14
27 27 25 24 24 25 26 26 26 25 24 23 22 21 20 19 18 17 16 15 15 15 15 15 15 15 16 18 20 22 22 22 22 22 23 24 23 22 21 20 19 17
27 27 27 26 26 26 27 27 27 26 25 24 23 22 21 20 20 19 18 17 17 17 18 18 17 16 17 17 17 19 22 22 23 23 23 25 25 24 23 22 21 20
27 28 28 28 28 28 28 27 27 26 26 25 23 22 22 22 21 21 20 20 19 19 19 20 19 18 18 18 17 17 19 21 23 23 24 25 26 26 26 25 24 22
27 28 29 29 30 29 28 28 27 27 27 26 25 24 24 23 23 23 22 23 23 22 21 21 21 21 20 20 18 17 18 19 22 24 24 25 26 27 28 28 27 25
28 29 30 30 30 29 29 28 28 28 27 27 26 26 26 25 25 25 25 25 25 24 24 23 23 24 23 22 21 20 19 19 21 23 24 25 26 28 29 30 30 29
28 29 30 30 30 30 29 28 28 29 28 27 27 27 27 27 27 27 27 27 26 26 26 26 25 25 25 24 23 22 22 21 21 22 24 25 25 27 29 31 31 31
26 28 29 29 29 30 29 29 29 29 29 28 27 27 28 29 29 28 27 27 27 26 27 27 27 27 27 25 24 24 24 24 23 23 24 25 25 26 28 30 32 33
25 26 27 28 28 29 29 29 29 29 29 28 27 27 27 29 29 28 27 27 28 27 27 27 28 28 28 27 25 24 25 26 25 24 24 25 25 26 27 29 31 33
26 25 26 27 27 28 28 28 28 28 28 28 27 26 26 27 28 28 28 28 28 27 27 28 28 28 27 27 26 25 25 26 27 26 26 25 25 26 27 28 29 32
30 27 27 27 27 27 27 27 27 26 26 26 25 25 24 24 25 26 28 27 26 26 26 26 27 27 26 26 26 25 26 27 29 29 28 28 27 26 27 28 29 30
33 32 30 29 28 27 27 26 26 25 25 24 24 24 23 23 22 23 25 25 24 23 23 24 24 25 25 24 24 25 25 27 29 30 30 30 29 28 28 28 29 30
35 35 34 32 31 29 28 27 26 26 25 25 25 25 25 24 23 23 24 25 24 22 22 22 22 23 23 23 23 23 24 25 27 29 30 30 30 29 29 29 30 31
33 36 37 35 33 32 31 29 29 28 27 27 26 26 27 26 26 25 25 25 26 24 22 22 22 22 23 24 24 24 24 24 25 27 28 29 29 30 29 30 30 31
27 31 36 38 37 35 34 33 32 31 29 29 28 29 29 29 28 28 27 27 27 27 25 24 23 23 23 24 25 25 25 25 26 27 28 29 30 30 30 30 31 32
22 25 30 35 39 38 37 36 35 33 32 31 31 30 30 30 30 30 30 29 28 28 29 27 26 25 24 25 26 26 26 26 27 28 29 30 30 31 31 31 31 33
21 22 24 29 35 39 39 38 36 35 34 33 33 32 31 31 31 31 31 30 30 30 30 29 28 27 26 25 26 27 28 28 29 29 30 31 31 32 32 32 32 33
20 21 22 24 28 34 38 39 38 37 36 35 35 35 33 33 33 33 32 32 31 31 31 30 29 28 28 27 27 27 29 30 31 31 31 32 32 33 34 34 35 35
19 20 21 21 24 28 34 38 39 38 38 37 37 36 36 35 35 34 34 33 32 31 31 31 31 30 30 29 29 30 31 31 32 34 34 34 34 35 36 36 37 37
20 20 20 20 23 26 30 34 38 39 38 38 38 38 38 38 37 36 35 34 34 33 32 32 33 33 33 32 32 33 33 33 34 35 35 35 36 37 38 38 38 38
19 21 20 20 22 25 28 31 34 37 38 38 39 39 39 40 39 38 36 35 35 35 34 34 34 35 35 35 34 34 36 37 38 37 35 35 37 39 40 40 39 39
Wind_Direction
218 222 225 225 225 226 225 226 226 223 218 214 214 214 212 211 214 221 227 227 228 230 232 234 236 238 242 244 245 247 247 245 243 241 240 240 246 252 258 263 272 280
219 222 225 225 225 226 225 225 225 222 219 216 214 211 211 215 219 222 228 229 228 229 232 234 236 239 244 247 249 252 251 248 247 245 242 241 244 249 255 258 257 262
220 223 226 227 226 226 226 225 225 223 219 218 216 214 214 219 225 228 232 233 231 231 234 236 239 241 246 250 251 254 256 254 251 250 247 244 244 246 252 256 255 255
221 223 227 229 227 227 226 225 226 224 221 220 219 219 219 221 226 230 235 237 236 236 238 241 244 245 248 252 254 255 258 258 255 253 251 247 247 248 250 255 258 257
221 224 226 228 228 227 225 225 226 226 224 223 222 224 226 227 228 230 235 241 243 243 244 247 249 250 251 254 256 257 257 259 258 256 254 251 251 253 254 255 258 261
221 224 225 227 228 227 226 225 226 227 226 226 227 228 231 234 234 233 235 241 248 251 252 253 255 257 256 256 258 259 259 259 259 258 257 254 252 253 256 258 258 262
219 221 223 225 226 227 226 225 226 227 227 228 230 231 234 238 240 239 237 240 247 254 259 260 261 263 264 262 261 263 263 262 261 259 258 256 254 251 254 259 260 261
217 218 221 223 224 225 225 225 225 226 227 228 230 233 235 238 241 243 243 244 247 253 259 264 267 267 269 270 269 267 267 266 264 261 259 257 256 254 253 257 260 261
215 216 217 220 222 222 223 224 224 224 227 229 230 233 236 238 240 244 247 251 253 255 258 264 269 271 273 274 275 273 270 270 268 265 261 258 257 257 255 255 257 259
215 215 215 217 219 220 221 222 223 224 226 229 232 235 237 239 242 245 249 253 257 260 261 264 268 271 273 275 275 275 274 272 271 269 266 261 257 257 256 256 257 258
214 215 216 216 217 219 220 221 224 226 226 229 232 237 240 242 244 246 250 253 257 262 266 267 268 270 271 273 274 274 274 272 271 271 270 267 262 258 256 255 256 258
215 216 217 217 218 219 221 221 224 227 229 229 231 236 241 244 246 248 252 256 259 262 266 268 269 270 271 272 272 273 272 271 270 271 271 270 267 262 259 256 256 257
216 217 219 219 219 220 222 223 225 228 230 231 232 233 238 243 248 250 253 257 261 263 265 268 269 270 270 270 270 270 271 270 269 270 271 272 271 267 263 259 256 256
219 217 218 219 219 220 222 224 225 228 230 233 233 232 234 240 247 253 255 257 260 263 264 266 267 268 268 269 268 268 269 270 270 270 271 272 272 272 269 264 260 257
224 221 219 218 218 218 220 223 224 227 230 234 235 234 236 240 246 253 257 257 258 260 261 263 264 265 266 267 267 267 268 270 271 271 271 271 271 271 271 269 265 260
227 226 222 220 219 216 216 219 222 225 228 232 236 237 238 240 243 249 255 257 258 258 258 259 260 263 264 265 266 267 267 268 270 270 270 270 269 268 268 270 269 265
229 228 226 224 222 219 217 217 220 224 226 230 236 239 241 241 241 243 250 256 259 258 259 259 260 263 265 265 265 265 264 265 266 268 269 268 267 266 265 266 268 268
234 230 228 226 225 223 223 221 222 225 229 232 236 240 244 247 246 247 251 257 260 260 259 261 263 265 268 269 268 267 265 264 263 265 268 269 268 266 264 264 265 267
243 236 231 228 227 226 226 226 226 227 230 234 237 241 247 250 252 253 254 257 261 263 262 262 264 266 269 271 272 271 269 268 266 267 269 271 272 270 267 264 263 264
250 245 238 232 230 228 227 228 229 229 231 235 239 243 247 250 254 257 258 259 262 265 267 267 266 267 269 271 273 274 273 273 273 273 273 274 274 274 272 269 265 264
252 250 245 238 233 230 229 229 230 231 232 235 240 243 246 250 255 258 261 263 264 265 268 270 271 272 274 275 276 276 276 275 274 274 274 275 275 275 275 274 271 267
252 252 249 244 238 233 231 230 231 233 234 236 240 244 247 250 253 257 261 264 266 267 268 271 274 276 278 279 279 278 277 276 274 273 273 273 274 275 276 276 274 271
253 251 249 247 243 237 233 232 232 233 235 237 240 243 247 250 253 256 260 264 267 268 270 271 273 274 275 276 277 277 276 275 274 274 274 274 274 274 274 275 274 274
250 248 246 244 241 238 235 233 233 234 235 237 239 242 246 250 253 256 259 263 266 267 268 269 270 270 271 272 273 274 274 274 274 274 273 274 274 274 274 274 275 275
246 243 243 239 236 237 237 235 234 234 235 237 239 241 244 248 252 256 258 260 263 265 267 268 269 269 269 269 271 273 275 276 276 275 274 274 274 274 275 276 276 276
245 240 239 237 233 234 236 236 235 236 236 237 239 241 243 246 250 254 257 259 261 263 266 267 268 269 269 269 271 273 275 276 276 277 278 277 275 275 276 277 277 277